ECMWFNIL_250_spd_000.txt.gz
Wind_Speed
56 56 56 57 57 58 59 59 60 60 60 61 61 61 62 63 63 63 64 64 64 64 65 65 67 68 68 67 67 66 67 68 68 68 67 67 68 68 67 66 64 63
58 58 58 59 59 59 60 60 61 61 62 62 63 63 64 64 65 65 65 66 66 66 67 67 68 69 70 69 69 68 68 69 70 71 70 69 69 69 69 69 68 68
60 60 60 61 61 61 61 61 62 62 63 64 64 65 66 66 67 67 67 67 68 68 68 69 69 70 71 72 71 71 70 70 71 72 73 73 72 70 70 70 71 71
63 63 62 62 62 63 63 63 63 63 64 64 65 67 67 68 68 69 69 69 69 70 70 70 71 71 73 74 73 73 73 72 72 73 74 75 75 73 72 71 72 72
66 66 66 65 65 65 65 65 65 65 65 65 66 67 68 69 70 70 71 71 71 71 71 72 72 72 73 74 75 75 75 75 75 75 75 76 76 76 76 74 73 73
68 68 68 68 68 67 67 67 67 67 67 68 68 68 69 70 71 72 72 73 73 73 73 73 73 73 74 74 75 77 77 78 78 77 77 77 78 78 79 78 77 75
70 70 70 70 70 70 70 70 69 69 69 70 70 70 71 71 72 73 73 74 74 74 75 75 75 75 75 75 75 77 78 80 80 80 79 79 79 80 80 81 80 79
71 71 72 71 72 72 72 72 72 72 72 72 72 73 73 74 74 74 75 75 75 76 76 76 76 77 76 76 76 77 79 80 82 82 82 82 82 81 82 83 83 82
72 73 73 73 73 74 74 74 74 74 74 74 74 74 75 76 76 76 76 76 76 77 76 76 77 77 78 78 78 79 79 81 82 83 84 84 84 84 84 84 84 83
73 73 74 74 75 75 75 75 75 75 76 76 76 76 76 77 78 78 79 78 78 78 77 77 77 77 78 78 79 80 81 82 83 84 84 85 86 86 86 86 85 84
74 73 74 74 75 75 76 76 76 77 77 78 78 78 78 78 78 79 79 80 80 80 79 79 78 78 78 79 79 81 81 83 83 84 85 85 86 87 87 87 86 85
76 75 75 75 75 76 76 76 77 77 77 78 78 78 78 78 78 79 79 80 82 82 82 81 80 79 79 80 80 81 82 83 83 84 84 85 85 86 87 87 87 86
79 78 78 78 78 78 78 77 77 77 77 78 77 78 78 78 78 78 79 80 81 82 83 83 83 82 81 81 82 83 83 83 83 83 83 84 85 85 86 87 87 87
83 82 82 81 81 80 80 79 79 79 78 78 78 78 78 78 79 79 79 80 81 82 83 83 84 84 84 84 84 84 85 84 84 83 83 83 84 84 85 86 86 87
87 86 86 85 84 83 82 82 81 81 80 80 79 79 79 79 80 80 81 81 81 81 82 82 84 85 86 87 86 86 86 85 85 85 84 84 84 84 84 84 85 86
90 89 89 89 88 86 85 84 84 83 83 82 82 82 82 82 82 82 82 82 81 81 82 82 83 85 87 88 88 88 88 87 87 86 86 85 85 85 85 85 85 85
93 93 92 92 90 89 88 87 86 86 85 85 85 85 85 85 84 84 84 83 82 82 83 83 84 85 87 88 89 89 89 89 88 88 87 87 87 87 87 86 86 86
95 95 94 94 92 91 90 89 88 88 88 88 88 88 88 87 87 86 85 85 84 84 84 84 85 87 88 89 89 90 90 90 89 89 89 89 88 88 88 88 88 87
98 97 96 95 94 93 92 90 90 89 89 89 90 90 90 90 89 88 87 86 86 86 86 86 87 88 89 90 90 90 90 90 90 90 90 90 90 90 89 89 89 89
99 99 98 97 95 94 93 92 91 91 91 91 91 92 92 92 91 89 88 88 87 87 87 88 88 90 91 91 91 91 92 91 91 91 91 91 91 91 91 90 90 90
97 98 97 97 96 95 94 93 93 92 93 93 93 94 94 94 92 91 90 89 89 88 88 88 89 91 92 93 93 94 93 93 92 92 92 92 92 92 92 92 91 91
94 94 93 93 93 92 91 91 91 91 92 92 93 94 95 94 93 92 91 91 90 90 89 89 90 91 92 93 94 95 96 95 94 94 93 93 93 92 92 92 92 92
89 89 89 88 88 87 87 86 86 87 88 88 89 90 91 89 89 89 89 89 89 89 89 89 90 92 93 94 95 96 97 97 96 95 94 94 93 93 93 93 93 93
82 82 83 83 84 83 82 81 82 83 83 84 84 85 84 83 83 83 82 82 83 84 85 86 87 90 92 93 95 96 96 96 96 95 95 95 95 95 94 94 94 94
73 74 76 77 77 77 77 77 79 80 80 80 80 80 78 77 77 77 77 77 78 79 80 81 83 85 88 90 92 93 94 94 95 94 94 95 95 96 96 95 95 96
66 66 68 69 69 69 70 72 74 75 75 76 75 74 72 72 72 72 72 73 74 75 76 77 79 82 84 85 86 87 88 90 91 91 93 94 95 95 95 96 96 97

ECMWFNIL_250_spd_003.txt.gz
Wind_Speed
53 53 53 53 53 53 53 53 53 55 56 57 57 57 58 59 59 60 60 60 60 60 61 61 62 63 64 65 66 67 67 66 66 65 63 63 63 63 62 62 63 64
55 55 55 55 55 55 55 55 55 55 56 57 58 59 60 61 61 62 62 62 62 62 63 63 64 64 65 66 67 68 68 68 68 67 65 64 64 65 65 65 65 66
58 57 57 57 57 57 58 57 57 57 57 58 59 60 61 62 63 63 64 64 64 65 65 65 65 66 66 67 68 69 70 70 70 69 68 67 66 66 67 67 67 68
61 61 61 60 59 59 60 59 59 59 59 59 60 61 62 63 63 64 65 65 66 66 67 67 67 68 68 68 69 70 71 72 72 71 70 70 69 68 68 69 69 69
65 64 64 64 63 63 62 61 61 61 61 61 62 62 63 63 64 65 65 66 66 67 67 68 69 69 69 70 70 71 72 73 73 74 73 72 72 71 70 70 70 71
68 68 68 68 67 66 66 65 64 63 63 63 64 64 65 65 66 66 66 66 67 67 68 68 69 70 71 71 72 72 73 74 75 75 75 76 75 74 73 72 71 71
71 71 71 71 70 70 69 69 68 67 66 66 66 66 67 67 68 68 67 67 67 68 68 69 69 70 71 72 73 74 74 75 76 77 77 78 78 77 76 75 74 73
73 73 73 73 73 72 72 71 71 70 70 70 69 69 69 69 69 69 69 69 69 69 70 70 71 71 71 72 73 75 75 76 77 77 78 79 80 80 79 77 76 75
74 74 74 74 74 74 73 73 72 72 72 73 73 72 72 71 71 71 71 71 71 71 71 72 72 72 72 72 73 75 76 77 77 78 78 79 80 81 81 80 79 78
75 75 74 74 74 74 74 73 73 73 74 74 74 74 74 73 73 73 73 73 74 74 74 73 73 74 73 74 74 75 76 77 78 78 79 79 80 81 82 82 81 80
76 76 76 75 75 74 74 74 73 74 74 74 74 74 74 74 74 74 75 75 76 76 76 76 76 75 75 75 76 76 77 78 78 79 79 80 81 81 82 82 82 82
79 78 77 77 77 76 75 75 75 75 74 74 74 74 74 74 74 75 76 76 77 78 78 78 78 78 78 78 78 78 78 79 79 79 80 80 80 81 82 82 83 83
82 81 80 80 80 79 78 78 77 77 76 75 75 74 74 74 74 75 76 77 78 79 79 79 79 79 80 80 80 80 80 80 80 81 81 81 81 81 82 83 83 84
86 85 84 84 84 83 83 82 81 80 79 78 77 76 75 75 75 76 77 78 79 80 80 80 80 80 81 81 82 82 81 81 81 81 82 82 82 82 82 82 83 84
90 89 89 88 88 87 87 86 85 84 82 81 80 79 78 77 78 78 79 79 80 80 80 81 81 81 82 83 83 82 82 82 81 82 82 83 83 84 84 83 83 83
92 92 92 92 92 91 91 90 89 88 86 85 83 82 81 81 81 81 81 81 81 81 81 81 81 82 83 84 83 83 83 82 82 82 82 83 83 84 85 85 85 84
92 92 93 94 94 95 94 94 93 92 90 89 87 86 85 84 84 85 84 84 83 83 82 82 83 83 84 84 84 83 83 82 82 82 83 83 83 84 85 87 87 86
91 91 93 95 96 97 97 96 95 94 93 92 91 90 88 88 88 88 88 87 86 85 85 85 85 85 85 85 85 84 83 82 82 82 82 83 83 84 85 86 87 88
88 89 92 94 97 98 98 98 97 95 94 94 93 93 92 92 91 91 90 90 89 88 88 88 88 89 88 87 86 85 84 83 82 82 82 83 83 84 84 85 86 87
84 86 89 92 94 96 96 96 96 96 96 95 95 95 95 95 95 94 92 92 91 91 91 91 91 91 91 90 89 88 86 85 84 83 83 83 84 84 84 85 85 86
82 83 86 89 90 90 90 91 93 93 94 95 95 96 97 97 97 96 95 93 92 92 92 92 92 93 93 92 91 90 89 88 86 85 85 85 85 85 85 85 85 86
82 82 84 85 85 85 85 86 88 88 89 90 92 93 95 96 96 96 95 95 95 94 93 93 93 93 93 92 92 91 90 89 88 87 87 87 88 87 87 86 86 86
84 82 80 78 78 79 81 82 83 83 84 85 87 88 90 91 91 91 91 93 94 94 94 94 94 94 94 93 92 91 90 89 88 88 88 88 89 89 89 89 88 88
85 81 74 70 70 72 75 76 77 77 78 80 81 82 83 84 83 84 86 87 88 89 90 90 91 92 92 92 92 91 90 89 88 88 87 88 88 90 90 90 90 90
84 77 70 66 67 67 68 69 69 70 71 73 73 75 76 76 76 78 81 82 82 82 83 84 84 85 86 86 86 87 87 87 87 86 86 87 88 89 90 90 90 90
78 73 68 65 64 64 63 64 64 65 65 64 65 67 68 68 70 73 76 77 77 76 76 77 77 77 78 79 79 81 81 82 81 81 82 84 85 87 88 88 89 90

ECMWFNIL_250_spd_006.txt.gz
Wind_Speed
50 50 50 50 51 51 51 50 50 50 50 51 51 52 53 54 54 55 55 56 56 56 57 57 58 58 59 59 60 61 63 64 66 66 67 67 68 68 68 68 67 66
53 52 52 52 52 52 52 52 52 52 52 53 53 54 55 55 56 57 58 58 58 58 59 59 60 61 61 62 62 63 63 64 65 67 67 67 67 68 69 69 69 68
55 55 55 54 55 55 55 54 54 54 55 55 56 56 57 57 58 58 59 60 61 61 61 61 62 63 63 64 65 65 65 65 66 66 68 68 69 68 69 69 69 69
58 58 58 57 57 58 57 57 57 57 58 58 58 59 59 59 59 60 60 61 61 62 63 64 64 65 65 66 67 67 68 68 68 68 68 69 69 69 70 69 69 70
61 61 61 61 61 61 60 60 60 60 61 61 61 61 61 62 61 61 61 61 62 62 63 65 66 67 68 69 69 69 69 69 69 70 69 70 70 70 70 70 70 70
64 64 64 64 64 64 64 63 63 63 64 64 64 64 64 64 63 63 63 63 63 63 64 65 66 67 69 70 71 71 71 71 71 71 71 72 71 71 71 71 71 72
68 67 67 67 67 67 67 67 67 67 67 67 67 67 67 66 65 65 65 65 65 65 65 66 66 67 68 70 71 72 72 72 72 72 73 73 73 73 73 72 72 73
71 71 71 71 70 70 69 69 70 70 70 70 70 70 70 69 69 68 68 67 67 67 67 67 67 68 68 69 71 72 72 73 73 74 74 75 75 75 74 74 74 74
74 73 73 73 73 72 72 72 72 72 72 72 72 72 72 72 72 71 71 70 70 70 69 69 69 69 69 70 71 71 72 73 74 74 75 75 76 76 76 75 75 76
75 75 75 75 75 74 74 74 74 74 74 74 74 74 74 74 74 74 74 73 73 73 73 72 72 71 71 71 72 72 73 73 73 74 74 75 76 77 77 77 77 77
76 76 76 76 76 76 76 76 76 76 76 76 76 76 76 76 76 76 76 76 76 75 75 75 75 74 74 74 74 74 74 74 74 74 74 75 76 76 76 76 77 78
78 78 78 78 78 78 78 78 77 77 76 76 76 77 77 77 77 77 77 77 77 77 77 77 77 77 77 76 76 76 76 76 76 76 76 76 76 76 76 76 76 76
80 81 81 81 80 80 80 80 80 79 78 77 77 77 77 77 77 78 78 78 78 79 79 79 79 79 79 79 79 78 78 78 77 77 77 77 77 77 77 76 76 76
83 84 85 85 84 84 84 83 82 82 81 80 80 79 79 79 79 79 79 79 79 80 80 79 79 79 80 80 80 80 80 80 80 79 79 80 80 80 80 79 78 78
87 88 88 88 88 88 88 88 87 85 84 83 83 82 81 81 81 81 81 81 81 81 81 80 80 80 80 81 81 81 81 81 81 81 81 82 82 82 83 82 81 81
81 87 91 91 90 90 90 91 91 90 88 87 86 85 84 84 84 83 83 83 84 83 83 82 82 82 82 82 82 82 82 82 82 82 83 83 84 84 85 85 85 84
72 83 93 94 92 92 92 93 94 93 92 91 90 89 88 88 87 87 87 87 87 86 85 85 84 84 84 84 84 83 83 82 82 83 84 84 85 86 86 87 87 87
79 86 94 94 93 93 93 93 94 94 94 94 93 93 93 92 92 92 91 91 91 90 89 88 88 88 88 87 86 86 85 84 84 84 84 85 85 86 87 88 88 88
85 89 92 94 94 94 94 93 94 94 95 94 94 94 94 95 96 96 96 96 95 94 93 93 92 92 91 91 90 89 88 87 86 86 86 86 86 87 87 88 88 89
82 85 89 92 93 94 94 95 96 97 96 95 94 93 93 94 95 96 97 98 98 97 96 96 95 95 94 94 93 93 92 91 90 89 88 88 88 88 88 88 89 89
79 81 85 89 91 91 92 94 95 96 95 94 92 90 90 92 93 94 95 96 98 99 98 98 98 97 97 96 96 96 95 94 93 92 91 91 91 90 90 90 90 90
77 80 85 89 91 91 92 93 93 93 93 91 87 83 83 85 87 88 91 93 96 98 98 99 99 100 99 99 98 98 97 96 95 95 94 94 93 93 93 93 92 92
78 84 90 92 91 91 91 92 92 92 93 92 86 79 76 76 78 81 85 89 92 94 95 96 97 99 99 99 99 99 98 98 98 97 96 95 95 95 95 95 95 94
79 85 90 90 88 89 90 92 93 93 94 91 84 77 72 71 73 76 80 84 87 88 89 90 92 93 95 95 96 97 97 97 97 96 96 95 96 96 96 96 96 96
78 83 86 86 85 87 89 92 93 94 93 89 82 76 73 72 72 72 74 78 79 79 81 83 84 86 87 88 90 91 92 92 92 92 92 92 93 94 95 95 95 96
78 82 84 83 83 86 90 92 92 92 89 85 80 77 74 71 69 69 70 71 71 72 74 76 77 78 79 81 83 84 85 85 84 84 85 86 88 89 90 92 93 94

ECMWFNIL_250_spd_009.txt.gz
Wind_Speed
49 48 47 47 47 48 48 48 48 48 49 49 48 48 48 48 48 49 49 49 50 51 51 51 51 52 52 53 54 54 54 55 56 57 58 60 62 62 62 61 61 61
51 50 50 49 49 49 49 50 50 50 51 51 50 50 49 49 50 50 50 51 51 52 53 54 54 54 54 55 55 56 56 57 58 58 59 60 62 63 64 64 63 63
54 54 53 52 52 52 52 52 52 52 52 53 52 52 52 51 51 51 52 52 53 53 54 55 56 56 57 57 57 57 58 58 59 60 61 62 63 64 65 65 65 65
57 57 56 56 55 55 54 54 54 54 55 55 55 54 54 54 53 53 53 54 54 55 55 56 57 58 58 58 59 59 59 60 60 61 62 63 64 65 66 67 67 67
60 60 59 59 58 58 58 56 56 56 57 57 57 56 56 56 56 55 56 56 56 56 57 57 58 58 59 60 60 61 61 62 63 63 63 64 65 66 67 68 69 70
63 62 62 62 62 62 61 60 59 59 59 59 59 59 58 58 58 58 58 58 58 59 59 59 60 60 60 60 61 62 62 63 64 65 65 66 66 67 67 68 69 71
66 65 65 64 65 65 65 64 63 63 63 62 62 61 61 61 61 61 61 60 60 61 61 62 62 62 62 62 63 63 63 64 65 66 67 67 68 68 69 69 70 71
69 68 68 68 68 68 67 67 66 66 66 66 65 65 64 64 64 64 64 63 63 63 64 64 64 64 64 65 65 65 65 66 66 67 67 68 68 69 70 70 71 72
73 72 72 71 71 71 70 70 69 69 69 68 68 68 67 67 67 67 67 67 67 67 67 67 66 66 67 67 67 67 68 68 68 68 69 69 69 69 70 71 72 73
75 74 74 74 74 74 74 73 72 72 72 71 71 71 70 70 70 70 70 70 70 70 70 70 69 69 69 69 69 69 69 69 69 70 70 70 71 71 71 71 72 74
76 76 76 76 77 77 76 76 75 75 75 74 74 73 73 73 73 73 73 73 73 74 73 73 73 73 72 72 73 72 72 72 71 71 71 71 72 72 73 73 73 74
78 78 78 78 78 78 78 77 77 77 77 77 76 76 76 76 76 76 76 76 76 77 77 76 76 76 76 76 76 76 75 75 75 74 74 74 74 74 74 74 75 76
82 81 81 81 81 81 79 78 77 78 79 79 79 79 79 79 78 78 78 79 79 79 79 79 79 79 78 78 78 78 78 78 78 77 77 77 77 77 77 77 77 77
85 84 84 84 84 84 82 79 78 78 80 80 81 81 81 81 80 80 80 80 80 81 81 81 81 81 81 81 81 81 81 80 80 80 80 80 80 80 80 80 79 80
86 86 86 87 87 86 84 82 80 81 82 83 83 84 83 83 82 82 81 81 81 82 82 82 83 83 83 83 83 83 83 82 82 82 82 82 82 82 82 82 82 82
85 86 86 86 86 87 87 85 84 85 87 88 88 88 87 86 85 84 83 83 83 83 84 84 84 84 84 85 85 84 84 84 83 84 84 84 83 84 84 84 84 84
83 84 84 83 82 85 87 87 87 88 89 90 91 92 91 90 89 88 87 87 86 86 87 87 87 87 86 86 86 85 85 84 84 85 85 85 85 84 85 85 85 85
81 81 80 77 76 79 84 87 88 88 88 89 91 92 93 93 93 92 91 91 91 91 91 91 91 90 89 89 88 87 86 86 85 85 86 86 85 85 85 86 86 86
79 78 77 73 71 73 79 84 87 88 88 89 89 90 91 92 92 93 94 94 94 95 96 96 95 94 93 92 91 90 90 89 88 87 87 87 87 87 87 87 87 88
77 76 73 71 71 75 80 84 86 87 88 89 90 89 89 90 90 91 92 94 96 97 98 99 98 97 96 95 94 93 93 92 91 90 90 89 90 90 90 90 90 90
74 73 70 68 70 76 82 85 86 86 86 89 90 89 88 89 90 90 90 92 94 95 96 97 97 97 97 97 96 95 93 92 92 92 92 92 93 93 94 94 95 94
70 70 70 69 70 74 80 84 85 85 87 88 90 90 89 89 90 91 91 91 92 92 92 94 95 96 97 97 97 96 94 93 92 92 93 94 96 97 98 98 98 99
68 68 69 70 71 74 79 82 83 85 88 90 90 91 91 90 90 91 91 91 91 92 92 93 94 94 95 95 95 95 94 94 94 95 96 98 100 101 101 102 102 102
65 66 67 69 71 71 74 79 84 88 91 91 89 89 89 89 90 90 91 91 91 92 92 92 92 91 91 91 91 90 89 89 90 92 95 98 100 102 103 104 105 104
62 64 65 68 71 73 76 80 85 89 89 87 85 85 87 88 90 90 91 91 91 92 91 89 86 84 83 81 79 78 77 78 80 84 87 92 95 98 100 102 103 103
60 62 63 67 72 76 79 83 86 87 87 84 82 83 84 87 89 90 91 91 92 92 90 85 81 77 74 72 70 67 67 68 71 75 80 85 90 94 97 98 98 98

ECMWFNIL_250_spd_012.txt.gz
Wind_Speed
46 45 44 44 44 44 45 45 45 45 45 45 45 45 46 46 45 44 44 44 43 44 44 44 44 44 44 44 45 46 47 47 48 49 49 50 51 50 51 56 61 62
49 48 48 47 47 46 46 46 46 46 46 46 46 47 47 48 48 47 46 46 46 45 45 45 46 46 46 46 47 47 48 49 50 51 51 52 53 53 52 53 58 63
51 51 50 50 50 49 49 48 48 47 47 47 48 48 48 49 49 49 49 48 48 47 47 47 47 48 48 48 49 49 49 50 52 52 53 54 54 55 56 55 56 60
54 53 53 52 52 52 52 52 51 50 49 48 49 49 49 50 50 50 50 50 50 50 49 49 49 49 49 50 50 51 52 52 53 54 55 56 57 57 58 59 58 59
58 57 56 55 55 55 54 54 54 53 52 51 50 50 50 51 51 52 52 52 52 51 51 51 51 51 51 51 52 52 53 54 55 56 56 57 58 59 60 60 61 61
61 61 60 59 58 57 57 56 56 55 55 54 53 53 53 53 53 54 54 54 54 54 54 53 53 53 53 53 54 54 55 56 56 57 58 59 59 60 61 61 62 63
62 62 62 62 61 61 60 59 58 57 57 57 56 56 56 55 56 56 56 56 57 57 57 56 56 56 56 56 56 57 57 58 58 59 60 61 61 62 62 63 63 64
65 64 64 64 64 63 63 62 61 60 60 60 59 59 59 59 59 59 59 59 59 60 60 59 59 59 59 59 59 60 60 60 60 61 62 62 63 64 65 65 65 66
69 68 67 66 66 65 65 64 63 63 63 63 63 62 62 62 62 62 62 62 62 63 63 63 62 62 62 62 62 62 62 62 63 63 63 64 64 65 66 67 67 68
74 72 70 68 67 67 67 66 65 65 65 66 66 66 65 65 65 65 65 65 66 66 66 66 65 65 65 65 65 66 65 66 66 66 65 66 66 66 67 67 68 69
77 77 75 72 71 69 69 68 68 67 68 68 68 68 68 68 68 68 68 68 69 69 69 69 69 68 68 69 69 69 69 69 69 69 68 68 68 67 68 69 70 71
78 79 79 78 76 74 72 71 70 69 69 69 70 70 71 71 71 71 71 71 72 73 72 72 72 72 72 72 72 72 72 72 72 72 72 71 71 71 71 72 72 73
78 80 80 80 79 78 77 75 73 72 71 71 71 72 73 74 74 74 74 75 75 76 75 75 75 75 75 75 75 76 76 75 75 75 75 75 74 75 75 75 75 75
78 79 80 80 80 80 80 79 78 77 75 74 74 74 75 76 76 76 77 78 78 78 78 78 78 78 78 79 79 79 79 79 78 78 78 78 78 78 78 78 78 78
77 79 80 80 81 81 81 81 81 79 78 76 76 77 77 78 78 78 79 80 81 81 80 80 80 81 81 82 82 82 82 81 81 81 81 81 81 81 81 81 81 81
77 78 79 80 81 80 81 81 81 80 79 78 78 80 80 80 81 82 82 83 83 82 82 82 82 83 84 85 85 85 84 83 83 83 83 83 83 83 83 83 83 83
76 77 78 79 80 80 80 78 75 74 74 76 78 81 83 83 84 84 85 86 86 86 85 84 84 85 87 87 87 86 85 85 85 85 85 85 85 85 85 85 85 85
76 77 77 78 79 80 79 77 73 71 72 74 79 83 85 86 86 86 86 88 89 89 88 88 89 89 90 89 88 87 87 87 87 87 87 87 87 87 87 87 87 87
75 76 77 78 78 78 78 77 76 75 76 77 81 85 87 88 88 88 88 89 89 90 91 92 93 93 93 92 91 90 90 89 89 88 88 87 87 88 88 88 88 88
73 74 76 77 77 78 78 77 76 77 79 81 84 86 87 88 89 90 91 91 90 91 92 94 95 96 95 95 94 94 94 93 92 91 90 90 90 90 90 90 90 89
71 72 73 74 75 76 77 77 76 77 80 83 85 85 85 86 88 90 90 90 90 90 92 95 96 97 96 96 96 96 96 96 95 94 94 93 93 93 93 93 92 92
70 70 70 71 72 74 75 75 75 76 79 82 84 86 86 87 89 89 88 88 88 91 93 95 96 97 96 96 97 97 97 96 96 96 96 96 95 95 95 95 94 94
68 68 68 68 69 70 71 72 73 75 77 79 82 84 86 87 88 87 86 87 90 93 94 94 95 95 94 94 94 95 95 95 95 96 96 96 97 97 97 97 96 95
66 66 66 66 67 67 68 69 71 73 75 77 78 81 83 85 86 86 86 88 91 94 95 94 94 94 93 92 91 91 92 92 93 93 94 94 95 95 96 97 97 96
63 64 65 65 65 65 66 67 69 71 73 75 77 79 80 83 84 85 87 88 90 93 94 93 92 91 91 91 90 89 89 88 88 89 90 91 91 92 93 93 93 93
61 61 62 63 64 64 64 65 67 70 73 75 76 77 78 81 82 84 86 88 90 93 93 91 89 89 90 90 89 88 86 85 85 85 85 86 86 87 87 87 88 88

ECMWFNIL_250_spd_015.txt.gz
Wind_Speed
42 42 42 43 43 43 41 40 39 39 39 39 39 40 40 40 40 39 40 40 40 40 40 41 41 41 41 41 41 41 41 42 43 45 47 49 51 54 56 57 58 58
45 44 44 44 45 45 44 44 43 42 41 40 41 41 41 42 41 41 41 41 41 42 42 43 43 43 43 43 44 44 44 44 45 45 46 48 50 52 54 56 57 59
48 48 47 47 47 46 46 46 46 46 45 44 43 43 43 43 43 43 44 44 44 44 44 44 45 45 45 45 46 46 46 46 47 47 47 48 49 51 52 54 56 57
51 50 50 50 49 49 48 48 48 48 48 47 47 46 46 46 46 46 46 46 46 47 47 47 47 47 47 48 48 48 49 49 49 49 49 50 50 51 52 54 55 56
53 52 52 52 52 52 52 51 50 50 50 50 50 49 49 49 48 48 48 48 48 49 49 49 49 49 49 50 51 51 51 51 51 52 52 52 52 53 54 54 55 56
55 54 54 54 54 55 54 54 53 53 52 52 52 52 52 52 52 52 51 51 51 51 51 51 51 51 51 52 52 53 53 53 54 54 54 55 55 55 55 56 56 57
57 57 57 57 57 57 56 56 55 55 55 55 55 55 55 55 55 55 55 55 54 54 53 53 53 54 54 54 54 55 55 55 56 56 56 57 57 57 57 57 57 58
61 61 61 60 59 59 58 58 57 57 57 58 58 58 58 58 58 58 58 57 57 57 56 56 56 56 56 57 57 57 57 57 57 58 58 59 58 59 59 59 59 60
65 66 65 63 62 62 61 60 60 59 60 60 60 60 60 61 61 61 60 60 60 60 60 60 59 59 59 59 60 60 59 60 60 60 60 60 60 60 61 61 62 62
68 69 68 67 67 66 65 64 63 61 61 62 62 63 63 63 63 63 63 63 63 63 63 63 63 63 63 63 63 63 63 63 63 63 63 62 62 62 62 63 63 64
67 69 69 69 69 69 69 68 67 65 64 64 64 65 65 65 65 65 66 66 66 66 66 66 66 65 66 66 67 67 67 67 66 66 66 65 65 65 65 65 65 65
64 66 67 69 69 69 70 71 70 70 69 68 67 67 67 67 67 68 68 68 69 69 69 70 70 69 69 70 70 70 70 70 70 70 69 69 69 68 68 68 67 67
62 64 66 67 67 68 70 71 72 73 73 72 71 70 69 69 69 70 71 71 71 71 72 73 73 73 73 73 74 74 74 74 73 73 73 72 72 72 71 71 70 70
63 64 65 66 67 67 69 70 72 73 74 73 73 73 72 71 71 73 73 74 74 75 75 76 76 76 76 76 76 77 77 77 76 76 76 76 76 75 75 74 74 74
65 65 66 66 67 67 68 70 70 71 72 72 73 74 74 72 73 76 77 78 79 79 78 78 78 78 78 78 79 79 79 79 79 79 79 79 78 78 78 77 77 77
68 68 68 68 68 68 68 69 69 70 70 71 72 74 73 72 74 78 79 81 83 83 83 82 81 80 80 80 81 81 81 81 81 81 81 81 81 81 81 80 80 80
70 70 70 69 69 69 69 69 69 69 70 70 71 73 72 72 74 78 81 84 86 87 87 86 85 84 83 83 83 83 83 83 83 83 83 83 83 83 83 83 82 82
71 71 71 71 71 70 70 70 69 70 70 70 71 72 72 73 75 77 80 84 86 88 89 89 88 88 87 87 87 86 85 85 85 85 85 85 85 85 85 85 85 85
73 72 72 72 72 71 71 70 70 70 70 70 71 72 72 73 76 78 80 82 84 86 87 88 89 89 90 90 91 90 89 89 89 88 87 87 87 87 87 87 87 88
74 73 73 73 73 72 72 71 71 71 71 71 72 72 72 73 75 78 80 82 84 85 85 86 86 88 89 91 92 93 93 93 93 92 91 90 90 90 89 89 89 89
74 74 73 73 74 73 73 72 72 72 72 72 73 73 73 73 74 77 80 82 84 86 86 86 86 86 87 89 91 92 94 96 95 94 94 93 93 93 93 92 92 91
75 74 74 74 74 74 73 73 73 73 73 73 73 73 74 74 75 76 79 81 83 84 85 86 88 88 88 88 89 90 93 94 95 95 95 96 96 96 96 96 95 95
76 75 75 75 75 74 74 74 74 74 73 73 73 73 73 74 75 76 78 80 81 82 83 85 87 88 88 89 89 90 91 91 91 92 93 94 96 96 97 97 97 97
77 76 75 75 75 75 75 74 74 73 73 73 73 73 73 73 74 75 77 79 80 81 82 83 84 85 86 87 89 90 90 90 90 89 90 91 92 94 94 95 96 97
77 76 76 75 75 75 75 75 74 73 73 73 72 73 73 73 73 74 76 79 82 82 81 81 82 83 84 85 86 87 88 88 89 89 89 89 89 90 90 91 92 93
76 75 75 75 75 75 75 74 74 74 73 72 72 72 73 73 73 74 77 80 82 81 78 77 78 79 80 81 82 83 84 85 86 87 87 87 87 86 86 87 88 89

ECMWFNIL_250_spd_021.txt.gz
Wind_Speed
45 45 45 44 43 43 43 43 43 42 41 40 39 39 39 39 39 39 39 39 40 41 41 42 43 44 45 46 46 45 45 46 46 47 50 52 54 57 59 60 62 63
48 47 48 48 47 47 47 46 46 46 45 44 43 42 42 42 42 42 41 41 41 41 42 43 44 45 46 47 47 47 46 46 46 46 47 49 52 54 56 58 60 63
49 49 49 50 50 50 50 49 49 48 48 47 47 46 45 45 45 45 44 44 43 43 43 43 44 45 46 47 48 48 48 47 47 47 47 48 49 51 53 55 58 60
51 51 51 51 51 51 51 51 51 51 50 50 50 49 49 48 48 48 47 47 47 46 45 45 45 45 46 47 48 49 50 50 49 49 48 48 49 49 51 53 55 57
51 51 52 53 53 52 51 51 51 51 52 53 53 53 52 52 51 50 50 49 49 49 49 48 47 47 47 47 49 50 51 51 51 51 50 50 50 50 51 52 53 55
53 52 52 53 53 53 52 50 50 51 52 53 55 56 56 55 54 54 53 52 52 52 52 52 51 50 49 49 49 50 51 52 53 53 53 53 53 53 53 53 54 54
55 54 53 53 53 53 52 50 50 51 51 52 54 56 57 57 57 57 56 56 55 55 54 54 54 54 53 52 52 51 52 53 53 54 54 54 54 55 55 56 56 56
59 57 56 56 55 55 54 52 51 52 52 53 54 54 57 58 58 59 59 59 59 58 58 58 57 57 57 57 56 55 54 54 54 55 55 56 56 56 56 57 58 59
61 61 60 59 59 58 57 55 55 55 54 55 54 54 56 58 59 59 60 60 61 61 61 61 61 60 60 59 59 59 58 58 57 56 56 57 57 57 57 58 59 60
62 62 62 62 61 61 60 58 57 57 59 60 59 57 57 58 59 60 61 62 62 63 63 63 63 63 62 62 62 62 62 61 61 60 59 59 59 59 59 59 60 60
60 61 61 62 61 61 61 62 61 59 60 63 64 63 60 59 60 62 63 63 63 64 64 64 64 65 65 65 65 64 64 64 64 64 63 63 62 62 61 61 61 62
58 59 59 60 61 59 59 63 65 62 61 63 65 67 66 64 63 63 63 64 66 66 66 65 65 66 67 67 67 67 67 67 67 66 66 66 66 65 65 64 64 64
58 58 58 58 59 59 59 61 63 63 62 64 66 68 69 68 66 66 65 64 66 67 68 68 68 68 68 69 69 70 69 69 69 69 69 69 69 69 69 69 68 67
59 59 58 58 59 59 59 60 60 60 61 62 63 67 69 68 68 68 66 65 66 67 67 68 69 70 70 71 71 72 71 71 71 72 72 72 72 72 72 72 72 72
62 61 60 60 60 60 60 60 60 59 57 57 59 64 67 67 67 68 67 67 69 70 69 67 68 69 71 73 74 74 73 73 73 74 74 74 75 75 75 75 75 75
65 64 63 63 62 62 62 62 62 61 60 61 63 65 66 66 65 65 66 67 69 71 71 69 69 69 71 73 75 76 76 75 75 76 76 76 77 78 78 78 78 78
68 68 67 66 66 65 65 66 66 65 65 66 67 66 66 66 65 64 66 67 68 70 70 68 68 70 73 75 76 77 77 77 78 78 78 78 79 79 80 80 81 81
70 70 70 70 69 69 69 69 69 69 69 69 68 67 67 67 66 66 68 67 68 69 70 68 67 69 74 76 76 77 77 78 79 79 80 81 82 82 83 83 83 83
71 72 72 72 72 72 72 72 72 72 72 72 72 71 70 69 69 69 69 69 68 68 69 70 69 70 74 76 75 76 76 77 78 78 79 82 83 84 85 86 86 86
73 73 74 74 75 75 74 75 75 75 75 75 74 74 73 72 71 71 70 70 70 69 70 70 68 71 76 76 75 75 75 76 76 75 77 80 82 83 86 87 88 88
74 75 75 75 76 76 76 76 77 77 77 77 77 76 76 74 74 73 73 71 71 71 71 69 69 73 76 76 75 75 75 75 75 75 77 79 80 82 84 86 88 89
76 76 76 76 77 77 78 78 78 78 78 78 78 77 77 76 75 75 75 73 71 72 71 69 71 75 76 75 75 75 75 76 76 76 78 80 81 82 83 84 86 86
79 78 78 78 78 78 79 79 79 79 79 79 79 78 78 78 77 77 77 74 72 72 72 71 73 74 74 74 74 74 75 76 77 78 79 80 81 82 83 83 83 84
81 80 80 80 80 79 80 80 80 80 80 80 80 79 79 79 78 78 78 76 73 73 73 74 75 74 73 73 73 73 75 77 78 79 80 81 82 82 82 82 83 84
82 81 81 81 81 81 81 81 81 81 82 81 81 81 81 80 79 79 79 77 76 74 74 75 75 74 73 73 73 74 75 77 78 80 81 81 81 81 81 82 83 84
82 82 82 82 82 82 81 81 82 82 82 82 82 82 82 81 81 80 79 78 77 76 75 75 75 74 74 74 74 75 76 77 79 80 80 80 80 81 81 82 83 84

ECMWFNIL_250_spd_024.txt.gz
Wind_Speed
46 45 44 44 44 44 44 42 41 40 38 38 38 38 37 37 37 37 37 37 36 36 37 37 38 39 40 41 41 41 42 43 45 48 51 55 58 60 61 62 61 60
47 47 46 46 45 45 45 45 44 43 42 41 41 40 40 40 40 39 39 39 39 39 39 39 39 40 41 42 42 43 43 43 44 46 48 50 54 57 60 62 63 63
47 47 47 46 46 46 46 46 46 45 45 45 45 44 44 43 42 42 42 42 42 42 42 41 41 41 41 42 43 44 44 45 45 46 47 49 50 53 55 58 61 63
48 47 47 47 47 48 48 48 47 47 47 47 47 47 47 47 47 46 45 45 44 44 44 44 44 43 43 43 43 44 45 46 47 47 48 49 50 51 52 54 56 59
51 51 50 49 48 48 49 49 49 49 49 49 49 49 49 50 50 50 49 49 48 47 47 47 46 46 46 45 45 45 45 46 47 48 49 50 52 53 53 54 54 56
54 54 53 51 51 50 49 49 50 50 51 51 51 51 51 51 51 52 52 52 52 51 50 49 49 48 48 48 48 47 47 47 47 48 49 51 52 53 54 55 55 56
57 57 56 54 54 53 52 51 51 51 51 51 52 53 52 52 53 53 53 53 53 54 53 52 52 51 50 50 50 50 50 50 50 50 50 51 52 53 55 56 56 57
59 59 58 56 56 55 55 54 53 53 54 53 52 53 53 54 55 55 55 54 54 54 54 54 54 54 54 53 53 53 53 53 53 53 52 52 52 53 54 56 57 58
58 59 58 58 58 58 57 56 55 56 57 56 54 54 54 55 55 56 56 56 56 55 54 54 55 56 56 56 56 56 55 55 55 55 56 55 55 55 55 56 57 59
56 56 57 57 58 58 58 58 57 57 59 60 59 57 56 56 57 58 57 57 57 56 55 55 55 56 57 58 59 59 59 58 58 58 58 58 58 58 58 58 58 59
55 55 55 56 56 56 56 56 57 57 59 61 62 60 58 57 58 59 58 58 58 57 57 57 56 56 57 58 59 60 61 61 61 61 61 60 61 61 61 61 61 60
54 54 54 54 54 54 53 53 55 57 58 61 62 61 60 61 62 62 62 62 61 59 59 59 58 58 58 58 58 59 61 63 63 63 63 63 64 64 64 64 64 64
54 54 55 54 54 54 53 52 53 55 57 60 61 60 61 64 65 63 63 63 63 62 60 58 58 59 59 61 62 61 62 64 65 65 65 66 66 66 66 67 67 67
56 56 55 55 55 55 54 54 54 55 56 57 58 59 60 62 63 62 61 61 61 61 62 61 60 60 61 63 66 67 67 67 67 66 66 67 68 68 68 69 69 70
57 57 57 57 57 57 56 56 56 57 56 56 56 58 59 60 60 60 59 58 57 57 60 62 63 63 62 62 66 70 72 71 69 67 67 68 69 69 70 71 71 72
58 59 59 59 60 60 59 59 58 58 58 58 58 58 59 60 59 59 58 57 55 54 57 60 60 59 59 61 64 70 74 74 72 70 69 69 70 70 71 72 73 74
60 61 62 62 62 62 62 62 61 61 61 60 60 60 61 61 61 60 59 57 56 57 60 62 60 57 57 59 62 67 72 73 73 72 71 70 70 71 72 74 75 76
63 63 64 64 64 65 65 65 65 64 64 63 63 63 63 63 63 62 61 60 59 60 63 64 61 60 60 60 61 65 69 71 71 70 70 70 69 70 72 74 76 77
66 66 66 67 67 68 68 68 68 68 67 66 66 66 66 66 66 65 64 64 63 63 64 65 64 65 66 66 66 68 70 72 72 70 68 67 67 69 71 73 74 76
68 68 69 69 69 70 70 71 71 71 70 70 70 69 69 69 69 68 68 67 67 66 67 66 66 69 71 72 73 74 73 73 73 71 69 69 70 72 73 74 75 76
70 70 70 70 70 71 71 72 72 72 72 73 72 72 72 72 71 72 71 71 70 70 69 68 68 71 74 75 76 77 77 76 75 74 73 74 76 77 78 78 78 78
72 71 71 71 71 72 72 72 73 73 73 73 73 74 74 74 73 73 74 73 73 73 71 69 69 72 75 77 78 78 78 77 76 76 76 77 78 79 80 81 81 81
75 74 74 73 73 73 73 73 73 73 73 73 73 74 74 74 74 74 74 74 74 74 72 71 72 75 76 77 78 78 78 78 77 77 78 78 79 80 80 81 82 82
76 76 76 76 76 75 75 74 73 73 73 73 73 73 73 74 74 74 74 74 73 74 73 73 75 77 77 76 77 77 78 78 78 79 79 79 79 80 80 81 82 82
77 77 77 77 77 77 77 77 77 76 75 74 74 74 74 74 74 74 74 73 73 74 75 75 76 77 76 76 77 78 79 79 79 79 79 79 80 80 80 81 82 82
78 78 78 78 78 78 79 79 79 79 78 77 76 75 75 74 74 74 74 74 75 76 75 75 76 77 76 76 77 78 79 79 79 80 80 80 80 80 81 82 82 83

ECMWFNIL_250_spd_027.txt.gz
Wind_Speed
53 52 51 50 49 48 47 47 47 47 46 45 44 44 43 42 41 40 40 40 40 40 39 39 38 38 38 38 39 39 39 39 41 42 43 43 42 43 44 47 50 52
54 53 53 52 51 50 49 47 47 47 47 47 46 46 46 45 44 43 43 43 43 42 42 41 40 40 39 39 39 40 41 41 42 43 44 44 44 43 43 45 47 50
54 54 54 54 53 53 52 50 49 48 48 48 48 48 48 48 47 47 46 46 45 45 44 44 43 43 42 41 40 41 41 42 43 44 44 45 45 44 44 44 45 47
52 51 50 52 53 53 53 53 52 50 48 48 48 49 49 50 49 49 49 48 48 47 47 47 46 46 45 44 43 42 42 43 43 44 45 45 45 45 45 45 45 46
53 52 49 49 51 53 53 54 54 53 51 50 49 49 50 51 51 51 50 50 50 49 49 49 49 48 48 47 46 45 45 44 44 45 45 46 46 47 47 47 47 47
57 56 53 50 50 50 51 53 55 55 54 53 52 52 51 51 52 52 52 52 52 51 51 51 51 51 50 50 49 48 48 47 47 46 46 47 47 48 49 49 49 49
60 59 59 56 52 49 50 52 54 55 55 55 55 55 54 54 53 53 53 53 53 52 52 52 52 52 53 53 52 51 51 50 50 49 49 49 49 49 49 50 51 51
61 61 61 60 58 57 57 56 54 54 54 54 55 57 57 57 56 56 56 55 54 53 53 53 53 53 54 54 54 54 54 53 53 52 52 51 51 51 51 52 52 53
63 64 64 64 64 64 64 61 57 55 54 55 57 58 59 59 59 59 58 58 57 55 54 54 55 55 55 55 55 55 55 56 55 55 55 54 54 54 54 54 54 54
60 59 61 65 69 69 68 66 63 60 60 60 60 60 60 60 60 60 60 60 60 58 56 56 56 56 57 57 56 56 56 57 57 57 57 57 57 57 57 57 57 57
58 56 57 64 70 69 67 66 65 64 64 64 62 61 61 60 60 61 61 61 61 60 59 58 57 57 58 58 58 58 58 58 58 59 58 59 59 60 60 59 59 59
58 59 62 65 66 63 62 62 62 62 62 60 58 58 59 59 60 61 61 61 61 61 60 59 59 59 59 59 60 60 61 60 60 59 59 60 60 61 62 62 62 62
56 57 59 61 61 59 58 58 57 57 57 56 55 54 55 56 57 58 59 60 60 60 61 61 60 60 61 61 61 62 63 62 61 60 60 61 61 62 63 63 64 65
56 56 57 58 58 58 57 56 55 54 54 54 53 53 53 53 54 55 55 56 57 58 59 60 60 60 61 61 61 63 64 63 63 62 62 62 63 64 64 64 65 66
56 56 57 57 57 57 57 56 55 54 54 54 54 54 53 52 53 54 54 55 55 56 56 57 57 58 59 61 62 64 65 66 66 65 66 65 65 66 66 66 66 67
56 57 57 57 57 56 56 56 55 55 55 55 55 55 55 54 54 54 54 55 55 56 56 57 57 57 58 59 60 62 63 65 66 67 67 67 67 68 68 68 68 68
55 56 56 56 56 57 56 56 55 55 55 56 56 57 57 57 56 56 56 56 56 57 57 58 58 59 59 58 58 59 61 62 63 65 66 66 66 67 69 70 71 71
55 56 57 57 57 58 58 57 57 57 57 57 58 58 58 58 58 58 58 58 58 58 59 59 60 60 60 60 60 60 61 62 63 64 65 64 64 64 65 68 70 72
56 57 58 58 59 60 60 60 60 60 60 60 60 61 61 61 61 61 60 60 60 60 60 61 61 62 62 63 63 62 63 64 65 66 66 65 64 64 64 65 67 69
59 59 60 60 61 61 61 62 62 62 63 63 63 64 64 64 64 63 63 63 62 62 62 62 63 64 66 66 66 65 65 65 67 68 67 67 66 66 67 68 69 69
61 61 61 62 62 62 62 63 63 64 64 65 65 66 66 67 67 66 66 66 65 65 64 64 65 67 69 70 69 69 68 68 69 69 69 69 69 69 70 71 71 72
64 63 64 64 65 65 65 65 65 65 66 66 66 67 67 68 68 68 68 67 67 67 66 67 68 69 71 72 72 71 71 71 71 71 71 71 72 72 73 73 73 74
67 67 67 67 68 68 68 68 68 68 68 68 68 68 68 69 69 69 68 68 68 69 69 70 70 71 72 73 73 73 73 73 74 74 74 74 74 74 75 75 76 77
70 70 70 70 71 71 72 72 71 71 71 70 70 69 69 69 69 69 68 68 69 70 71 72 72 72 72 73 74 74 75 75 76 76 77 76 76 77 77 78 79 79
72 72 73 73 73 74 74 75 75 74 74 74 73 71 71 70 68 68 68 68 70 71 72 73 74 73 73 73 75 76 76 77 77 77 78 78 78 79 79 80 80 81
74 75 75 75 75 76 76 76 76 76 76 76 75 74 73 71 69 68 68 69 70 71 72 73 74 74 74 74 75 76 77 77 78 78 78 79 79 80 80 81 81 81

ECMWFNIL_250_spd_030.txt.gz
Wind_Speed
52 54 53 50 47 48 49 48 46 46 46 44 43 42 41 39 39 40 41 41 41 41 41 41 40 39 39 39 39 39 38 38 38 37 37 36 36 35 35 37 38 39
49 51 51 50 49 50 51 49 45 43 43 44 44 44 43 42 41 41 41 41 42 42 42 42 42 42 42 41 41 40 40 40 40 39 39 39 38 37 37 37 38 39
47 49 49 50 52 54 55 52 47 44 43 44 45 45 44 44 44 44 43 42 42 42 43 43 43 44 44 44 43 43 42 42 42 42 41 41 40 40 39 39 38 39
48 48 50 52 55 59 60 56 51 48 46 45 46 46 46 45 45 46 45 45 43 43 43 43 44 45 46 46 46 46 46 45 45 45 44 43 43 42 42 41 41 40
49 49 52 54 56 59 62 60 56 54 52 49 49 49 49 49 48 47 47 47 46 45 44 44 44 45 46 48 49 49 49 49 48 48 47 46 46 45 44 44 43 43
53 54 55 56 57 59 61 61 60 59 58 55 54 53 54 53 52 50 49 48 48 48 47 46 45 45 46 48 49 51 51 52 51 51 50 50 49 48 48 47 46 45
54 56 56 56 57 59 61 62 61 60 60 59 58 57 57 55 53 52 51 50 49 50 50 49 49 48 48 49 49 51 52 53 53 53 53 53 52 51 51 50 49 48
57 58 58 59 59 61 64 64 64 64 63 62 61 60 59 58 55 53 53 52 51 50 51 52 52 52 52 51 51 51 52 53 53 54 55 55 55 54 54 53 52 52
59 57 57 59 60 62 65 65 65 64 64 64 64 62 61 61 61 59 58 58 56 54 53 53 54 54 54 55 54 54 53 53 53 54 54 55 56 56 57 56 56 55
54 51 52 57 60 62 63 63 60 58 61 65 65 63 62 63 64 64 64 64 63 60 58 57 56 57 57 58 58 58 57 56 55 54 54 54 56 57 58 58 58 58
52 48 47 51 55 57 58 59 59 58 61 63 63 61 60 61 63 63 64 65 66 65 64 63 63 63 63 62 61 61 60 59 58 57 56 56 56 57 58 58 59 60
55 53 51 51 52 51 53 55 58 60 58 56 59 60 57 57 57 57 58 60 63 66 67 66 66 66 65 64 63 63 63 62 60 59 59 59 58 58 58 58 59 61
51 55 57 57 56 54 53 52 52 53 54 56 61 63 60 58 58 58 60 62 64 65 65 64 64 63 63 62 62 62 63 63 63 62 61 61 61 61 61 60 60 61
44 52 54 56 58 59 59 57 53 53 57 61 64 65 65 64 65 65 65 64 63 63 61 61 60 59 59 59 59 60 61 62 63 63 64 64 64 64 64 64 63 62
47 51 52 52 56 60 62 63 62 62 63 65 67 66 66 66 65 65 63 61 60 60 59 59 58 58 58 57 57 58 58 59 60 62 64 65 65 66 66 67 67 66
56 57 58 58 59 61 62 64 64 65 65 66 67 66 65 64 63 63 61 60 59 59 58 58 58 58 58 57 57 57 57 57 58 59 61 62 63 64 66 68 69 69
61 62 63 63 63 63 64 64 64 64 64 65 65 64 64 63 63 63 62 61 60 59 59 59 58 58 58 59 59 59 58 58 58 59 59 60 60 61 63 65 67 69
62 62 62 63 64 64 64 64 64 64 64 64 64 64 63 63 63 63 62 62 61 60 60 59 59 59 59 60 61 61 61 60 60 60 60 60 60 60 61 63 64 66
62 63 63 63 64 65 65 64 64 64 64 64 63 63 63 62 62 62 62 62 62 61 61 61 61 61 61 62 63 63 63 62 62 63 63 63 63 63 63 63 64 65
63 63 63 63 64 65 65 65 65 64 63 63 62 62 62 62 62 62 62 63 63 63 63 63 64 64 64 65 65 64 64 64 64 65 66 66 67 67 66 66 66 67
64 63 63 64 64 64 65 65 65 64 63 62 62 62 62 62 63 63 64 64 64 65 65 66 67 68 68 68 67 67 67 67 67 68 68 69 69 70 70 70 70 70
64 64 64 64 64 63 64 64 64 64 63 63 63 63 63 63 64 64 65 65 66 66 67 68 69 69 70 70 70 70 70 70 71 71 71 71 71 72 72 73 73 73
65 65 65 65 64 64 63 64 64 64 65 65 65 64 64 64 64 65 65 66 67 68 68 69 70 71 71 72 72 72 72 73 73 74 74 74 74 75 75 75 75 76
64 64 64 64 64 65 65 66 66 67 67 66 66 65 65 65 66 66 67 68 69 69 70 70 71 72 73 73 73 74 74 74 75 75 76 76 76 77 77 77 77 78
63 64 64 65 66 67 68 68 68 68 68 68 67 67 67 67 68 68 69 70 71 71 71 72 72 72 73 74 74 75 75 76 76 76 77 77 77 78 78 79 79 80
64 65 66 67 68 69 70 70 70 70 70 70 70 70 70 70 70 71 71 72 72 73 73 73 73 73 74 74 74 75 75 76 77 77 78 78 78 78 79 80 80 81

ECMWFNIL_250_spd_033.txt.gz
Wind_Speed
43 42 42 43 44 44 42 42 42 44 47 49 48 47 45 44 43 41 40 39 38 37 37 37 36 36 36 36 36 37 37 37 35 34 32 32 32 31 31 31 30 30
44 43 44 46 46 45 43 42 41 42 44 48 50 51 51 49 48 45 44 43 42 40 38 36 36 36 37 37 37 37 38 38 38 38 36 35 34 34 34 34 33 32
50 51 53 54 54 51 48 45 43 42 43 46 48 50 51 52 52 50 48 46 45 43 40 38 37 37 38 38 38 38 38 38 39 40 40 39 37 37 37 37 36 36
53 54 56 57 58 59 58 53 48 44 42 43 46 47 48 50 52 52 51 50 50 48 45 43 42 41 41 41 40 40 39 39 39 40 41 41 41 40 40 40 40 39
51 52 53 53 55 59 62 59 54 48 44 44 45 47 48 49 51 53 54 54 54 54 52 50 49 48 47 46 45 43 42 41 41 41 41 42 43 44 43 43 43 43
49 49 48 47 49 54 58 58 55 53 51 49 49 50 50 51 53 54 55 56 56 56 56 55 54 53 52 51 49 47 45 44 43 43 43 43 44 45 46 46 46 46
51 51 51 49 50 53 56 57 57 57 57 55 53 53 53 54 54 55 56 56 57 57 56 56 56 56 56 54 53 51 48 46 45 44 44 45 45 45 46 48 48 48
57 57 57 57 56 57 58 59 60 61 60 59 57 56 56 57 58 58 58 58 58 58 59 59 58 58 57 57 56 55 53 50 48 47 46 46 46 47 47 48 49 50
61 61 61 60 60 60 60 61 62 63 62 61 61 61 61 61 60 60 60 61 61 61 61 61 61 60 59 59 59 58 57 56 54 52 50 48 47 48 49 49 49 50
61 62 63 63 63 63 63 62 62 63 64 64 64 65 64 62 60 59 59 60 61 62 62 61 61 61 60 59 59 60 60 59 59 58 56 54 52 50 50 50 51 51
58 59 60 62 63 63 62 60 60 62 64 63 62 64 64 61 59 58 58 60 62 61 60 60 59 57 56 56 56 58 59 60 60 59 59 58 57 56 56 55 55 55
55 55 56 58 59 60 59 57 57 59 60 60 59 59 60 58 56 55 51 50 54 56 54 53 51 51 51 51 52 54 55 56 56 56 56 57 58 60 60 60 60 60
52 52 53 53 53 55 55 53 53 54 55 56 57 57 56 55 54 54 48 42 44 49 51 50 46 47 49 50 51 53 54 56 57 58 59 59 59 60 60 60 61 61
51 51 53 51 49 51 52 51 51 52 52 53 55 55 56 54 52 53 53 49 45 46 54 58 54 52 53 53 54 56 58 60 61 62 62 61 60 59 58 59 59 60
53 53 54 54 52 51 51 53 55 56 55 55 56 56 56 55 53 51 52 53 49 49 58 66 64 60 59 59 59 59 60 60 60 60 60 59 58 58 58 58 59 59
56 57 57 56 54 51 50 52 57 60 60 60 60 59 57 57 56 54 53 52 52 56 64 68 67 66 66 65 64 62 61 60 59 59 59 58 58 58 58 59 59 59
58 58 58 58 57 54 52 55 60 63 64 63 63 62 61 59 58 56 56 56 56 60 64 66 67 70 72 71 68 65 64 62 61 60 59 59 58 58 59 60 60 59
59 59 59 59 59 58 57 60 65 66 66 66 65 65 64 61 59 58 59 61 62 65 67 69 72 74 74 73 70 68 66 65 63 63 62 61 60 59 59 60 61 60
61 61 61 61 61 62 62 63 66 68 69 69 69 69 68 66 65 65 66 68 70 72 74 75 76 76 75 73 71 69 68 66 65 64 63 63 62 62 61 61 62 62
63 63 64 63 64 64 65 66 68 69 70 71 73 74 75 75 75 75 76 76 77 77 78 78 77 76 74 73 71 69 68 66 66 65 65 65 64 64 64 64 64 64
65 66 66 66 67 67 68 69 69 70 71 72 73 75 77 78 78 78 78 78 78 77 77 77 76 75 74 72 71 69 67 66 66 66 66 66 66 66 67 67 67 68
66 67 67 68 68 69 69 69 70 71 72 73 73 74 75 76 76 76 76 76 75 75 75 75 74 73 73 72 70 69 68 67 67 67 67 67 67 68 68 69 69 70
64 65 66 67 67 68 68 68 68 70 71 72 72 73 73 73 73 74 74 75 74 74 73 73 73 73 72 72 71 70 69 68 68 67 67 68 68 69 70 70 71 72
62 63 64 64 64 65 65 66 67 68 69 70 70 71 71 71 71 72 72 72 73 72 72 73 73 72 72 72 71 71 70 70 69 69 69 69 70 71 72 73 73 74
62 62 63 63 63 63 64 66 67 68 69 69 70 70 70 70 70 70 69 69 70 70 71 71 72 72 72 72 73 72 72 71 70 71 71 72 73 74 75 75 76 76
62 62 62 63 63 63 64 66 68 69 70 70 70 70 70 69 69 68 67 67 68 69 70 71 72 73 74 74 74 74 73 73 73 73 73 74 75 76 77 77 78 78

ECMWFNIL_250_spd_036.txt.gz
Wind_Speed
45 47 47 47 47 46 45 45 43 41 41 39 36 35 35 35 36 36 36 37 38 39 40 40 40 38 37 35 35 35 34 33 32 30 29 29 29 30 30 30 31 30
47 48 49 49 49 49 48 48 46 44 43 41 39 40 40 38 37 37 37 38 39 40 41 42 43 43 42 41 40 39 37 36 34 32 30 30 31 32 32 33 33 32
49 49 49 49 50 50 50 50 49 46 44 44 45 46 46 44 43 42 41 41 41 40 41 41 42 43 44 44 43 42 41 39 38 37 36 35 34 33 34 35 35 34
50 50 51 51 53 53 52 52 54 51 47 47 48 49 50 49 49 48 46 44 43 42 41 41 42 42 43 44 45 45 44 43 43 43 42 40 38 37 36 36 37 37
53 53 54 54 56 57 56 56 58 56 52 51 51 52 52 52 52 52 50 47 44 42 41 42 43 43 44 45 46 47 47 46 46 46 45 44 42 40 39 38 38 38
55 56 56 57 57 58 59 60 61 59 56 54 53 53 54 54 55 55 54 51 48 46 45 45 46 46 46 46 47 48 48 49 49 48 47 46 45 43 42 41 40 39
54 55 56 57 57 56 55 57 58 58 56 54 53 53 54 54 55 57 57 56 54 52 51 50 49 49 48 48 48 48 49 50 50 50 50 49 48 47 45 44 43 41
55 55 56 57 56 54 52 52 53 53 53 52 53 54 54 55 56 57 59 59 58 57 56 55 53 52 52 52 51 51 51 52 52 53 53 52 52 50 49 48 46 45
59 60 61 61 59 57 55 54 54 54 54 54 55 56 57 57 57 58 59 60 60 59 59 59 58 58 57 57 57 56 56 55 55 55 55 55 55 54 52 51 50 48
62 63 65 65 64 62 61 60 59 59 58 58 59 60 60 60 59 59 59 60 61 60 60 61 61 62 62 62 61 60 59 58 56 55 55 55 56 55 53 52 51 51
60 61 63 63 64 64 64 63 63 63 63 63 64 65 65 64 63 61 61 61 60 60 61 62 63 64 64 63 63 62 61 60 57 56 55 54 54 54 53 50 49 49
60 60 60 61 61 61 62 62 62 62 62 63 64 65 66 66 64 63 62 62 61 60 60 61 62 63 63 63 63 62 62 60 56 53 52 49 48 49 50 48 47 46
59 59 59 59 59 59 59 60 59 59 60 60 59 60 61 60 59 59 60 60 60 60 60 60 60 61 62 62 62 62 61 56 48 44 44 42 41 43 45 46 46 47
57 57 57 57 57 58 58 58 57 57 57 57 56 55 53 52 52 53 54 54 55 57 59 60 60 59 59 60 59 60 62 57 47 42 42 42 43 44 46 47 48 49
57 57 56 55 56 56 56 56 56 55 53 53 53 53 51 48 49 51 52 53 54 54 56 59 59 57 57 58 57 58 61 62 55 48 44 45 46 47 48 49 49 50
58 57 57 56 56 56 55 55 56 56 55 54 54 55 52 50 52 54 55 56 57 56 58 60 61 59 56 57 58 58 60 63 62 56 51 49 49 49 50 50 51 51
59 58 58 58 59 58 58 58 58 59 59 59 59 58 56 55 56 57 58 59 60 60 62 64 64 62 60 58 59 61 62 65 65 62 59 57 54 53 52 53 53 54
60 60 60 60 61 61 61 62 63 63 62 62 62 61 60 59 59 59 60 61 62 64 66 67 67 66 65 63 63 65 67 68 67 65 64 63 60 59 58 58 58 58
62 62 62 62 62 63 63 64 64 64 64 64 64 63 62 61 61 61 61 62 64 67 68 69 69 68 67 66 67 68 70 70 70 68 67 67 66 65 64 64 63 61
66 65 64 64 64 64 65 65 65 65 65 65 66 65 64 64 63 64 64 65 66 67 68 70 70 69 68 68 69 71 72 73 72 72 71 71 72 72 71 69 68 66
68 68 67 67 66 66 67 67 67 67 67 67 68 68 68 67 68 68 68 69 69 69 70 71 71 72 72 72 73 74 75 76 76 76 76 77 77 77 76 74 72 70
67 67 67 68 69 69 69 69 69 69 69 69 68 69 69 70 70 71 70 71 71 71 72 73 73 74 74 74 75 75 76 78 79 79 80 79 79 78 76 75 73 72
64 65 66 68 69 70 70 70 70 69 70 70 70 70 71 72 72 72 72 72 72 73 74 75 75 75 75 75 75 75 76 77 78 78 78 78 77 75 74 73 73 71
62 63 64 66 67 68 69 68 68 69 70 70 71 72 73 73 73 73 73 73 74 75 76 77 77 77 76 76 75 75 75 75 75 75 75 75 75 74 73 72 71 71
60 60 61 63 63 64 65 65 66 67 69 70 71 72 73 74 74 74 74 74 75 76 77 77 77 77 76 76 75 74 74 73 73 73 73 74 74 73 72 71 70 70
60 60 60 61 61 61 61 62 64 65 66 67 68 70 71 72 72 72 72 73 73 74 75 75 75 74 73 73 72 72 72 71 71 71 71 72 72 71 71 70 70 70

ECMWFNIL_250_spd_039.txt.gz
Wind_Speed
47 47 47 47 47 47 46 45 43 41 41 42 44 44 44 42 41 40 39 37 36 34 33 32 31 30 30 31 32 33 35 35 35 34 33 32 31 30 29 27 26 25
48 47 47 47 47 48 49 48 47 46 45 45 46 46 45 45 44 43 43 42 41 40 39 38 38 37 36 35 35 34 35 36 37 38 38 37 35 34 32 31 30 29
50 49 48 48 48 49 49 50 50 50 49 49 49 48 46 46 45 45 45 44 43 42 42 42 42 42 42 42 41 40 39 38 38 39 39 40 39 38 37 36 35 35
51 50 50 49 49 50 50 50 52 53 52 52 52 51 50 49 48 48 48 47 46 45 44 44 45 45 45 45 45 44 43 42 41 40 40 40 40 40 40 39 39 39
50 50 49 49 50 51 51 51 53 54 55 54 54 54 53 53 53 53 53 52 51 50 49 48 47 47 46 46 46 45 44 43 42 41 41 41 40 40 40 40 41 41
52 53 53 52 52 53 54 53 54 55 55 56 55 55 55 55 56 56 56 56 55 54 54 53 51 49 48 47 47 46 45 44 43 43 43 43 42 42 41 41 41 42
53 54 54 53 54 55 55 56 56 56 56 57 57 57 56 57 57 58 58 57 56 54 54 53 52 51 50 49 49 48 48 47 47 46 45 45 44 44 43 43 44 44
52 52 53 53 54 55 56 56 56 56 55 56 57 57 56 55 55 56 56 56 55 54 54 54 53 53 52 52 52 51 51 51 51 50 49 48 47 46 46 47 48 48
56 56 56 57 58 58 59 59 58 58 58 58 59 60 59 56 55 55 55 55 54 54 54 54 53 53 53 53 53 53 53 53 53 53 52 51 51 50 51 51 52 52
60 60 60 61 61 61 61 62 61 61 61 61 62 63 64 64 63 62 61 60 58 56 56 55 55 55 54 54 55 55 55 55 55 54 54 54 54 54 55 55 54 53
63 63 63 63 62 62 62 62 62 62 62 63 63 63 64 66 66 66 66 65 63 62 61 60 60 60 59 59 58 58 57 57 56 55 54 54 54 54 54 53 52 51
67 66 66 66 64 64 63 63 63 63 64 64 64 64 64 64 64 64 65 64 64 63 62 62 62 62 61 60 59 59 58 57 55 54 53 52 51 51 50 49 49 47
70 69 69 68 66 65 65 65 65 65 65 65 65 64 63 62 62 61 62 63 62 61 60 60 60 60 59 58 57 57 56 55 53 52 50 49 48 48 46 46 46 44
71 71 70 69 68 67 68 68 67 66 66 65 64 63 62 61 61 60 59 60 60 59 58 59 59 58 58 57 57 56 54 53 52 51 50 49 48 48 45 42 43 41
73 72 71 70 69 69 68 68 68 68 67 66 64 63 61 60 60 59 57 56 55 53 53 53 54 54 55 56 57 56 55 54 53 52 51 50 50 50 48 44 42 41
73 73 72 71 71 70 70 69 68 68 67 66 64 63 61 60 59 57 56 55 53 52 50 50 51 51 51 52 54 55 56 55 54 53 52 51 50 51 52 51 48 46
74 74 73 72 72 72 71 70 69 68 67 66 65 63 62 61 59 57 56 56 56 55 53 52 52 52 52 53 53 55 57 58 58 56 54 53 52 52 53 55 55 53
76 76 75 75 74 73 72 71 70 69 68 67 66 65 64 63 62 61 60 59 59 58 58 57 57 57 57 57 57 57 58 59 60 60 58 56 55 55 55 57 58 58
79 79 78 77 76 74 73 72 71 71 70 69 68 67 66 65 65 65 64 64 63 62 63 63 63 62 62 61 61 62 62 62 62 62 62 60 58 58 58 59 60 61
81 80 78 77 76 74 73 71 70 70 69 69 69 68 68 68 67 68 68 68 67 67 68 68 68 68 67 66 65 64 64 65 64 63 63 62 61 60 60 61 62 63
81 79 78 77 75 74 73 72 71 70 69 68 69 69 69 69 68 69 69 70 71 71 71 71 71 70 70 68 67 66 66 66 65 64 64 63 63 63 63 64 65 66
80 78 77 76 75 75 74 73 73 72 71 71 71 71 70 70 70 70 70 71 72 72 72 72 72 72 71 70 70 69 69 68 68 67 67 67 67 66 67 67 68 68
77 76 75 75 75 74 74 74 74 73 73 73 73 73 73 73 73 73 72 72 73 73 73 74 74 75 74 74 73 72 72 71 71 71 70 70 70 70 69 70 70 71
71 71 71 71 71 71 72 72 72 72 72 72 73 73 74 74 74 74 74 74 74 75 75 76 76 77 77 76 75 74 74 73 73 73 73 72 72 72 72 72 72 72
67 67 67 67 67 68 67 67 67 68 68 69 70 71 71 72 72 72 73 74 75 76 76 77 78 78 78 78 77 76 76 76 76 76 75 75 75 74 74 74 73 73
68 67 66 66 66 66 66 65 64 65 65 66 66 67 68 68 68 68 70 71 72 74 75 76 77 77 78 77 77 77 77 77 78 77 77 76 75 75 74 73 72 71

ECMWFNIL_250_spd_042.txt.gz
Wind_Speed
40 42 43 44 44 43 43 44 44 44 45 45 45 44 43 41 39 38 38 38 37 36 35 35 34 34 33 32 32 32 32 31 30 29 28 28 29 30 31 32 33 34
43 42 43 43 44 45 46 48 48 48 48 47 46 45 44 42 41 41 41 41 39 38 37 37 36 36 35 34 35 35 36 36 36 35 35 35 35 35 35 34 35 36
46 45 44 44 46 47 48 49 50 49 49 47 47 46 46 44 44 44 44 43 42 41 40 40 39 39 39 38 38 39 39 39 39 39 38 38 38 38 38 37 37 37
49 48 46 46 47 48 48 49 49 48 47 46 46 47 47 47 47 46 46 45 44 44 43 43 42 42 42 42 42 42 42 42 42 42 42 42 41 40 39 39 38 38
51 51 50 50 51 52 52 51 49 48 46 46 46 47 47 47 46 46 46 46 46 46 46 46 46 45 45 44 44 45 45 45 45 45 45 45 44 43 42 41 40 39
52 53 54 55 55 54 52 50 48 47 46 46 46 46 47 48 47 47 48 48 49 49 49 49 49 48 48 48 47 47 46 46 46 45 46 46 46 46 45 44 42 41
51 53 54 54 53 50 48 47 46 45 45 45 45 45 47 49 49 49 49 49 49 49 49 50 50 50 51 50 50 49 48 47 46 46 46 47 47 47 47 46 46 45
49 51 52 52 51 49 47 47 47 47 47 47 46 47 48 50 52 52 53 53 53 53 53 54 54 53 53 53 52 51 50 50 49 50 50 50 50 50 49 49 48 47
51 51 52 52 52 51 51 51 52 52 52 52 52 52 53 53 54 55 56 57 57 58 58 58 57 55 54 54 54 54 54 53 53 54 54 54 53 53 52 51 50 49
56 56 55 54 54 55 56 56 57 57 57 57 56 55 56 57 58 58 58 59 59 60 59 59 58 57 56 55 55 56 56 56 56 55 56 56 55 55 55 54 53 52
62 61 61 60 59 60 60 61 62 62 61 60 58 58 59 60 62 62 62 62 61 60 60 60 60 59 58 57 56 56 56 56 57 57 58 58 58 58 58 57 56 55
68 67 66 66 65 65 65 64 64 65 65 64 64 65 65 66 65 65 66 65 63 62 61 61 61 61 59 58 57 56 56 56 56 57 58 58 58 58 57 56 55 54
72 72 71 71 70 68 67 67 68 68 69 70 71 71 71 70 70 69 68 67 65 65 64 63 63 62 61 59 58 57 56 55 55 56 56 56 55 54 54 53 52 51
74 73 74 73 72 71 70 70 71 72 72 73 73 73 72 73 72 70 69 68 68 67 66 65 65 64 62 60 59 58 57 56 55 55 54 53 52 51 50 49 49 48
77 76 76 76 75 73 72 72 73 74 74 73 72 72 74 74 73 72 71 71 69 68 67 66 66 64 63 61 60 59 58 56 55 53 52 52 51 50 49 48 48 48
79 78 78 78 77 76 74 74 76 77 77 76 75 75 76 74 74 74 74 72 70 69 68 67 65 64 63 61 59 58 57 55 54 53 52 52 52 51 50 49 49 49
79 79 78 78 78 77 76 77 79 81 81 81 80 78 76 73 73 73 72 71 70 68 67 66 65 64 62 60 58 56 54 53 52 51 52 52 52 51 49 48 47 47
81 81 81 81 81 81 81 81 83 84 84 83 81 79 76 74 73 71 70 68 67 66 65 64 63 62 61 60 60 59 58 56 54 52 53 53 53 53 52 53 54 54
79 80 81 81 82 82 83 83 83 83 82 81 80 79 78 76 74 72 70 68 66 64 63 63 64 64 63 62 63 63 63 62 61 59 58 58 58 58 58 59 60 62
79 79 80 80 81 81 82 82 82 81 81 80 80 80 79 78 77 76 73 72 70 68 67 68 69 68 67 66 66 66 66 66 66 65 65 65 65 65 65 65 65 66
81 82 82 82 83 83 83 83 83 82 82 81 81 80 80 79 78 77 76 75 74 71 71 71 71 69 68 69 69 69 69 69 69 69 70 70 70 70 70 69 69 69
84 84 85 85 86 86 86 86 86 86 85 85 84 83 82 81 80 78 76 75 73 71 72 73 73 72 71 70 70 70 69 69 70 71 71 72 72 73 72 72 71 71
86 87 87 87 88 88 89 89 89 88 88 87 87 86 84 83 83 81 80 79 78 77 77 77 78 78 76 75 73 72 72 72 72 72 72 73 73 74 75 75 74 73
84 85 85 86 86 87 87 87 87 87 86 86 85 85 84 83 82 82 82 82 82 82 81 81 80 80 80 79 78 77 77 76 76 76 76 76 77 77 78 77 77 76
77 78 78 79 79 80 80 81 81 80 80 80 80 80 79 79 79 79 80 80 81 81 81 81 80 80 80 80 79 79 79 79 79 79 79 80 80 80 80 80 80 79
73 74 74 74 75 75 75 76 75 75 75 75 75 75 74 74 74 74 75 76 77 77 78 78 78 78 78 78 78 78 78 79 79 79 80 80 81 81 81 80 80 80

ECMWFNIL_250_spd_045.txt.gz
Wind_Speed
46 43 41 41 40 39 39 37 36 37 39 40 41 41 41 40 40 39 38 38 39 39 39 38 37 36 35 33 30 28 27 26 26 26 26 26 26 27 27 27 27 27
51 46 43 43 43 42 42 43 43 43 43 42 42 42 41 41 40 39 39 39 39 39 39 38 38 38 37 35 32 30 29 28 28 28 28 28 29 29 29 30 30 30
54 50 47 47 47 46 46 47 48 47 45 44 43 43 43 43 42 41 40 40 40 40 40 39 39 39 37 35 34 32 32 31 31 31 31 31 32 32 33 33 33 33
55 54 52 51 50 49 49 49 49 48 47 46 45 45 45 45 45 45 44 44 43 42 41 41 39 38 37 36 35 35 35 35 34 34 34 35 35 36 36 36 36 36
51 52 52 53 52 50 50 50 50 49 48 48 47 48 48 48 49 49 49 48 46 44 42 40 38 37 36 37 37 38 38 38 38 38 39 39 40 41 40 40 39 39
50 49 49 50 50 50 51 50 50 49 49 49 49 49 49 49 49 49 48 47 44 42 39 37 37 37 38 39 40 41 41 42 43 43 44 45 45 44 43 42 42 42
51 49 49 50 51 51 51 49 48 48 48 48 48 48 48 47 46 46 45 44 43 41 39 38 37 38 40 42 43 44 44 45 46 46 47 48 47 46 45 45 45 44
50 50 51 52 52 51 50 48 46 44 44 45 45 46 46 46 47 46 46 45 44 44 44 43 43 44 46 46 46 47 48 48 48 48 48 48 49 49 48 48 47 47
53 53 54 55 54 53 52 50 47 44 43 44 46 47 49 50 50 50 49 49 49 49 50 50 51 52 52 52 52 52 53 53 53 52 51 51 51 51 50 49 49 48
57 57 57 57 56 55 54 52 50 49 48 49 50 51 52 53 53 53 53 53 53 53 54 56 57 57 58 58 59 59 59 58 57 56 54 53 53 52 51 49 49 49
61 60 59 59 58 58 57 55 53 53 53 54 55 56 55 54 54 54 55 56 56 57 59 60 61 62 62 63 64 64 64 62 61 59 57 55 54 53 51 50 50 50
63 63 62 61 62 62 61 60 59 57 57 57 58 58 58 57 56 57 58 59 61 62 64 65 66 66 66 67 67 67 66 65 64 61 58 57 56 54 53 52 51 51
64 64 63 63 64 65 64 65 65 64 63 62 60 60 60 60 60 61 62 63 65 66 68 69 70 70 70 70 70 69 68 67 66 63 60 60 59 57 56 55 54 52
66 66 65 64 65 68 68 68 68 68 68 68 66 65 64 63 64 65 66 67 68 69 70 72 73 73 73 73 72 71 70 69 66 64 62 61 60 59 58 57 55 53
68 69 68 66 67 70 71 72 71 71 72 73 72 71 70 69 69 69 71 72 72 73 74 75 75 74 73 72 71 69 68 67 66 65 63 62 60 59 56 53 51 51
72 72 69 67 69 72 73 74 75 75 76 76 74 74 74 74 74 74 74 74 73 72 71 71 71 71 71 68 65 65 66 66 66 65 62 59 54 50 47 45 45 45
73 75 74 72 73 74 75 75 77 78 79 79 77 77 77 76 76 75 74 74 71 66 62 60 58 61 64 64 66 68 68 66 65 62 58 52 43 38 38 39 41 42
70 73 76 78 79 80 80 80 80 81 81 79 77 77 77 77 77 76 75 73 68 62 59 57 57 61 67 70 72 72 69 65 61 55 49 44 39 36 34 34 38 44
69 70 72 75 78 80 81 82 82 82 80 79 77 76 75 71 67 64 64 62 58 56 56 57 61 67 70 70 70 69 66 63 60 53 48 47 46 45 44 44 47 52
68 69 70 71 73 75 77 77 78 78 78 77 76 71 65 58 53 54 56 56 56 57 58 59 63 67 68 67 66 65 64 64 62 60 58 58 58 59 59 59 61 64
70 70 71 72 72 73 74 73 73 72 72 71 68 64 59 58 59 62 65 68 70 71 71 71 73 75 75 73 71 70 70 70 69 69 70 71 71 70 69 68 69 71
73 74 75 75 75 75 75 75 74 73 73 72 71 71 72 73 75 77 80 81 82 82 81 81 82 83 82 81 82 82 83 82 81 80 80 80 79 77 74 72 72 72
76 77 77 78 78 78 78 78 78 79 79 79 79 81 82 82 83 85 86 86 85 85 86 86 87 88 88 89 91 92 91 90 89 87 85 83 81 80 77 75 75 76
79 80 80 81 81 81 81 82 83 83 83 84 84 85 86 86 86 87 88 88 89 89 90 91 91 92 92 93 93 94 93 92 90 87 85 83 82 80 79 79 80 80
78 80 81 82 83 83 83 85 85 86 86 86 86 87 88 88 88 89 89 90 90 90 91 92 91 91 90 90 89 88 87 86 84 82 80 79 78 77 78 79 79 79
73 74 76 77 79 79 80 81 82 82 82 82 83 83 84 85 85 85 86 86 86 86 86 86 86 85 84 83 82 81 80 80 79 77 76 75 74 73 73 74 74 75

ECMWFNIL_250_spd_048.txt.gz
Wind_Speed
52 51 48 45 44 44 42 41 42 42 41 40 39 38 37 36 35 34 34 35 36 35 34 34 34 33 32 31 30 30 30 29 28 27 25 25 24 23 23 24 24 25
55 54 51 48 47 46 45 44 44 45 46 47 46 44 42 41 41 40 41 42 41 40 38 36 35 35 34 34 34 35 34 32 30 28 26 25 25 24 24 25 25 26
57 56 54 51 48 47 47 45 45 45 46 47 48 47 45 44 44 44 45 45 46 44 42 40 38 38 38 39 39 38 36 33 31 29 28 27 27 27 27 27 28 28
56 56 55 54 51 49 48 46 45 46 46 47 48 49 49 49 49 49 49 50 49 48 46 43 41 41 42 42 41 39 36 34 33 31 31 30 30 31 31 31 31 32
58 57 56 55 54 53 51 49 49 49 49 50 50 50 51 52 53 53 53 54 53 51 49 47 45 44 44 43 41 38 36 35 35 34 33 33 33 34 34 34 35 36
61 59 57 56 55 54 54 53 52 52 51 52 53 54 54 54 55 55 56 56 55 54 52 50 48 46 45 43 39 37 36 37 37 37 36 36 36 37 37 39 40 42
62 61 59 57 56 55 56 56 54 53 53 53 55 56 57 57 57 57 57 57 56 55 54 52 50 47 45 42 40 38 38 38 39 40 40 39 39 41 42 45 47 48
61 62 61 59 57 56 56 56 54 54 56 56 56 56 57 58 58 58 58 58 57 57 55 53 51 48 46 44 42 41 41 41 42 43 43 43 44 45 47 49 50 51
59 60 60 59 57 54 54 54 55 56 57 57 57 57 58 58 58 59 58 57 56 55 54 52 50 48 46 45 44 45 45 46 46 47 48 48 49 50 52 53 54 54
59 59 59 58 57 55 55 54 55 56 57 58 59 60 60 59 59 58 57 56 54 53 52 51 50 49 47 46 47 48 50 51 51 52 52 53 54 55 56 57 57 57
61 62 61 60 59 58 58 58 57 57 58 60 60 60 61 61 60 59 58 56 54 53 53 53 52 52 52 52 52 53 54 55 56 56 56 56 58 59 59 59 60 60
60 62 62 62 62 62 60 58 56 56 56 57 59 61 62 62 62 61 60 59 57 56 55 55 54 54 54 55 56 57 59 59 59 59 59 60 61 61 62 62 61 59
59 60 60 60 59 59 60 60 59 59 61 62 62 62 63 62 62 63 63 62 61 61 60 58 57 56 58 60 61 62 64 63 62 62 62 63 63 62 62 60 57 54
49 47 47 46 43 45 51 54 56 59 61 63 63 63 63 63 64 64 65 65 65 64 63 62 61 61 63 64 64 64 66 66 64 63 63 63 62 61 58 54 51 50
45 42 41 41 42 45 45 42 43 49 52 54 57 60 62 64 65 66 66 66 66 67 67 67 66 66 66 65 61 61 63 63 61 61 60 58 59 60 56 52 52 51
55 53 50 49 49 53 53 49 49 52 54 56 59 62 65 65 64 63 64 64 65 67 67 67 65 66 68 67 64 63 64 62 60 61 57 54 57 58 54 52 52 51
58 60 61 60 57 57 58 58 58 58 59 62 63 63 64 63 62 62 62 62 62 62 62 62 63 65 67 69 69 69 69 66 64 63 60 59 59 57 54 53 51 49
50 55 61 65 64 63 63 64 65 65 66 68 67 64 62 60 59 61 63 63 63 63 64 66 68 71 73 74 73 72 70 67 65 63 62 62 61 58 55 54 53 53
51 53 58 62 65 67 68 68 69 70 71 71 71 70 69 67 64 63 66 70 72 73 74 76 77 78 79 78 75 71 68 66 65 64 63 62 61 59 57 55 55 55
61 60 61 63 65 67 68 68 69 70 72 74 75 76 76 75 73 71 73 76 78 79 80 81 81 81 81 79 76 72 68 65 64 63 61 60 59 57 57 57 58 58
68 66 65 64 63 63 63 64 65 67 70 73 74 75 76 76 77 78 78 79 80 80 80 80 80 79 77 75 74 72 67 64 62 61 60 59 59 60 61 64 65 66
71 71 69 68 67 66 65 64 64 66 69 72 73 74 75 76 78 79 79 79 79 78 77 75 75 75 73 71 71 71 68 65 64 64 63 63 64 67 69 71 73 74
71 71 71 72 72 72 72 71 71 72 75 75 75 75 76 77 77 78 77 77 77 76 75 75 75 75 74 73 72 73 72 71 71 71 70 69 70 73 76 79 82 83
70 70 71 72 73 74 74 74 75 77 78 78 78 79 79 79 79 79 78 78 78 78 78 79 79 78 77 76 75 75 75 76 76 77 77 77 79 82 86 88 89 89
66 67 67 69 71 72 72 74 76 78 79 79 80 80 81 81 82 82 81 80 79 79 78 79 80 79 78 78 79 79 80 82 83 85 86 87 89 91 92 93 93 92
65 66 66 67 67 67 68 70 73 75 77 78 79 80 81 82 83 83 84 84 83 82 80 81 82 82 82 83 85 86 88 90 92 93 93 93 94 94 94 94 95 94

ECMWFNIL_250_spd_051.txt.gz
Wind_Speed
49 48 46 44 42 42 43 45 45 44 45 47 48 47 45 44 43 42 41 40 40 39 38 37 38 38 38 38 37 36 36 36 36 34 33 32 32 31 30 28 26 25
49 49 47 44 42 41 43 47 48 49 50 52 53 51 48 45 44 44 43 43 42 42 41 42 42 42 42 42 41 41 40 41 40 39 38 36 35 34 32 29 28 27
48 50 50 48 47 46 47 49 51 52 53 55 55 54 51 47 45 44 44 44 43 43 44 45 46 46 46 46 45 45 45 44 44 43 42 40 38 36 33 31 30 30
43 47 49 50 51 51 51 51 52 52 53 54 55 55 53 50 48 46 45 45 45 46 47 48 49 49 49 49 48 48 47 47 47 46 45 43 40 37 34 33 32 33
42 43 45 48 50 52 53 53 53 52 52 53 54 54 53 52 51 50 49 48 49 49 50 50 51 51 50 50 50 50 50 50 50 49 47 45 42 39 36 35 35 36
46 44 42 42 43 46 49 52 53 53 53 53 54 54 53 52 52 51 52 52 53 52 52 52 52 51 51 51 51 52 52 51 51 50 49 47 45 42 40 38 37 38
51 49 47 44 44 45 47 49 51 52 53 54 55 55 53 52 52 54 55 55 53 52 52 51 52 52 52 53 53 53 53 52 52 51 51 50 48 46 44 42 41 41
53 55 55 54 54 54 54 52 52 52 53 54 55 55 54 53 54 55 55 54 52 52 52 52 53 53 54 54 54 55 54 54 54 53 53 52 50 48 46 45 44 44
50 54 58 60 61 61 59 55 53 51 51 52 53 54 54 54 54 55 54 53 53 53 53 53 53 54 54 55 56 57 56 56 56 56 54 52 50 49 48 47 47 47
47 50 52 55 58 60 61 59 56 53 51 51 51 52 53 53 53 54 54 54 54 53 53 53 54 54 55 56 56 56 56 56 55 54 53 52 51 50 50 50 51 51
51 53 53 54 56 58 59 60 59 58 56 55 54 53 54 53 53 53 54 53 53 53 53 52 53 53 54 55 55 55 55 54 53 52 51 52 52 53 53 54 54 54
47 51 53 55 57 58 58 58 58 58 59 59 58 58 57 56 55 54 53 53 53 53 53 53 53 53 54 55 55 56 56 55 54 53 53 54 55 56 56 57 57 57
44 45 43 44 46 50 54 56 56 57 59 60 60 60 60 59 57 54 52 52 52 53 55 56 56 56 57 58 58 58 57 56 56 56 57 58 59 60 61 61 61 61
46 44 40 40 43 47 49 49 50 51 52 53 53 52 52 52 51 50 48 48 50 52 55 56 58 59 59 60 60 60 59 59 59 60 60 61 62 62 63 63 62 61
48 47 45 43 43 47 49 46 43 44 44 45 45 43 42 43 43 45 45 46 48 50 51 52 54 55 55 57 58 60 61 61 61 61 61 62 62 61 60 60 60 61
54 51 49 46 41 42 47 47 45 46 46 47 47 46 45 45 45 46 48 50 52 54 55 55 56 58 59 60 62 63 62 62 62 61 61 61 60 58 58 59 62 65
51 48 47 49 46 43 47 50 50 50 51 51 52 52 52 52 52 53 54 56 58 60 62 64 65 65 66 66 66 66 65 65 64 62 62 62 61 61 62 63 66 69
52 49 45 48 49 46 48 52 54 54 54 56 57 58 57 58 59 60 60 61 63 64 66 67 68 68 69 69 69 68 67 67 67 67 66 66 67 67 69 71 72 73
58 53 48 48 48 47 49 52 54 55 57 60 61 62 63 64 64 65 65 66 68 69 70 70 71 72 72 72 72 71 70 68 69 69 70 70 71 72 74 75 76 76
61 59 55 51 49 48 50 52 53 54 59 63 62 61 62 63 65 66 68 70 72 73 74 75 76 77 77 76 76 75 74 73 73 73 74 75 75 77 78 78 78 78
61 62 61 59 56 53 53 56 58 59 62 64 61 58 59 60 62 64 66 70 73 75 77 79 80 81 81 81 80 79 77 77 76 76 77 77 78 79 79 79 78 77
64 63 63 63 63 61 59 61 65 67 69 69 66 64 64 64 64 65 67 70 74 76 78 80 82 82 82 81 81 79 78 77 77 77 76 77 78 78 78 78 77 75
70 69 68 68 68 67 65 67 70 73 75 75 73 72 71 70 71 72 73 74 75 76 77 78 79 79 79 78 78 78 78 78 78 78 77 77 76 77 78 79 78 77
76 77 77 77 77 76 75 76 79 81 82 82 82 81 80 80 81 82 82 82 81 80 79 79 79 79 79 80 81 81 81 82 82 82 81 79 78 78 79 80 79 78
78 79 80 80 80 81 81 82 84 85 87 88 88 88 88 88 88 88 87 86 85 84 84 84 84 85 85 86 87 87 87 87 87 87 86 84 83 83 82 81 80 78
78 79 79 79 80 80 81 83 84 85 86 87 88 88 88 88 88 88 87 86 85 84 85 85 85 86 87 87 88 89 90 90 91 90 89 88 86 86 85 84 82 81